Location: Newark
(45.5000°N, 11.4167°E)
Time: 00:38:31
(UTC+00:00)

Altair - Pass Details

Date: 28 August 2019
Orbit: 1501 x 1683 km, 47.2° (Epoch: 17 October)

Event Time Altitude Azimuth Distance (km) Brightness Sun altitude
Exits shadow 02:52:49 17° 262° (W) 3,318 8.7 -16.3°
Maximum altitude 03:00:57 84° 351° (N) 1,598 7.6 -15.1°
Drops below altitude 10° 03:10:27 10° 80° (E) 3,723 10.7 -13.7°
Sets 03:13:28 0° 81° (E) 4,686 11.5 -13.3°
